{"data":{"norad_id":57238,"epoch":"2026-05-25T04:04:11.203104Z","epoch_age_seconds":53656,"freshness":"FRESH","line1":"1 57238U 23094W   26145.16957411 -.00000457  00000+0 -70711-5 0  9993","line2":"2 57238  43.0058 308.2221 0001574 266.9902  93.0770 15.27577328158935","mean_motion":15.27577328,"eccentricity":0.0001574,"inclination_deg":43.0058,"raan_deg":308.2221,"arg_perigee_deg":266.9902,"mean_anomaly_deg":93.077,"bstar":-7.0711e-6,"rev_number":15893,"period_min":94.266913602687,"perigee_km":481.9771450297,"apogee_km":484.13704893143,"semimajor_km":6861.1940969806,"source":"CELESTRAK","updated_at":"2026-05-25T13:38:18.256113Z"}}